Port Angeles, WA
on Tuesday, January 15, 2013

Tuesday
Previous Day Next Day
Daily Summary
 ActualAverageRecord
Temperature
Mean Temperature °F °F  
Max Temperature 44°F 46°F 55°F (1958)
Min Temperature 28°F 35°F 17°F (1950)
Degree Days
Heating Degree Days 29    
Moisture
Dew Point 32°F   
Average Humidity 86    
Maximum Humidity 96    
Minimum Humidity 65    
Precipitation
Precipitation 0.00 in in in ()
Wind
Wind Speed 2 mph   
Max Wind Speed 5 mph   
Max Gust Speed mph   
Visibility 10 miles   
Events     
Averages and records for this station are not official NWS values.
Key: T is trace of precipitation, MM is missing value
Source: NWS Daily Summary
Seasonal Weather Averages
Time(PST)TemperatureDew PointHumidity Pressure Visibility Wind DirectionWind SpeedGust SpeedPrecipitationEvents Conditions
12:45 AM 33.1°F 30.9°F 92% 30.57 in 10.0 miles SSW 3.5 mph - N/A   Overcast
12:53 AM 32.0°F 30.9°F 96% 30.59 in 10.0 miles Calm Calm - N/A   Mostly Cloudy
1:53 AM 32.0°F 30.0°F 92% 30.61 in 10.0 miles Calm Calm - N/A   Partly Cloudy
2:08 AM 30.0°F 28.9°F 96% 30.61 in 10.0 miles SSE 3.5 mph - N/A   Mostly Cloudy
2:41 AM 30.0°F 28.0°F 92% 30.61 in 10.0 miles Calm Calm - N/A   Partly Cloudy
2:53 AM 30.2°F 28.4°F 93% 30.61 in 10.0 miles SSE 4.6 mph - N/A   Partly Cloudy
3:53 AM 30.9°F 30.0°F 96% 30.63 in 10.0 miles North - - N/A   Clear
4:53 AM 30.9°F 28.9°F 92% 30.63 in 10.0 miles North - - N/A   Clear
5:53 AM 28.9°F 28.0°F 96% 30.63 in 10.0 miles North - - N/A   Clear
6:53 AM 28.9°F 27.0°F 92% 30.66 in 10.0 miles Calm Calm - N/A   Clear
7:53 AM 30.9°F 28.9°F 92% 30.67 in 10.0 miles SW 4.6 mph - N/A   Mostly Cloudy
8:53 AM 30.9°F 30.0°F 96% 30.69 in 10.0 miles North - - N/A   Mostly Cloudy
9:53 AM 35.6°F 33.8°F 93% 30.69 in 10.0 miles North - - N/A   Overcast
10:53 AM 39.0°F 37.0°F 93% 30.71 in 10.0 miles North - - N/A   Overcast
11:53 AM 42.1°F 35.1°F 76% 30.70 in 10.0 miles North - - N/A   Overcast
12:53 PM 43.0°F 34.0°F 71% 30.70 in 10.0 miles North - - N/A   Overcast
1:53 PM 44.1°F 33.1°F 65% 30.69 in 10.0 miles North - - N/A   Overcast
2:53 PM 43.0°F 35.1°F 74% 30.70 in 10.0 miles North - - N/A   Overcast
3:53 PM 43.0°F 35.1°F 74% 30.70 in 10.0 miles North - - N/A   Overcast
4:53 PM 39.0°F 32.0°F 76% 30.70 in 10.0 miles North - - N/A   Mostly Cloudy
5:53 PM 37.0°F 32.0°F 82% 30.70 in 10.0 miles North - - N/A   Overcast
6:53 PM 37.9°F 32.0°F 79% 30.70 in 10.0 miles North - - N/A   Overcast
7:53 PM 37.9°F 32.0°F 79% 30.70 in 10.0 miles North - - N/A   Overcast
8:53 PM 37.9°F 33.1°F 83% 30.69 in 10.0 miles North - - N/A   Overcast
9:53 PM 37.0°F 33.1°F 86% 30.68 in 10.0 miles North - - N/A   Overcast
10:53 PM 37.0°F 33.1°F 86% 30.69 in 10.0 miles North - - N/A   Overcast
11:53 PM 37.0°F 32.0°F 82% 30.68 in 10.0 miles North - - N/A   Overcast
Moon Phase
Jan. 15 Jan. 18 Jan. 26 Feb. 03 Feb. 10
Sunrise:07:59 AM (PST) Moon Rise:09:43 AM (PST)1/15
Sunset:04:48 PM (PST) Moon Set:10:11 PM (PST)1/15

Copyright © 2014 The Weather Underground, Inc.